Bowling Green, KY

4:24 AM CDT on August 26, 2016 (GMT -0500)
Bowling Green-Warren County Regional

Weather History for KBWG - May, 2012

Change the Weather History Date:

Friday, May 25, 2012

  Actual Average Record
Temperature  
Mean Temperature 79 °F 69 °F  
Max Temperature 91 °F 80 °F 99 °F (1926)
Min Temperature 66 °F 58 °F 38 °F (1925)
Degree Days  
Heating Degree Days 0 1  
Month to date heating degree days 5 68  
Since 1 July heating degree days 2955 4037  
Cooling Degree Days 14 5  
Month to date cooling degree days 174 82  
Year to date cooling degree days 303 118  
Growing Degree Days 28 (Base 50)    
Moisture  
Dew Point 64 °F    
Average Humidity 64    
Maximum Humidity 87    
Minimum Humidity 41    
Precipitation  
Precipitation 0.00 in 0.17 in 2.51 in (1968)
Month to date precipitation 3.02 4.56  
Year to date precipitation 17.28 20.88  
Snow  
Snow 0.00 in 0.00 in 0.00 in ()
Month to date snowfall 0.0 0.0  
Since 1 July snowfall 1.4 9.1  
Snow Depth 0.00 in    
Sea Level Pressure  
Sea Level Pressure 30.02 in    
Wind  
Wind Speed 6 mph (SSW)    
Max Wind Speed 15 mph    
Max Gust Speed 21 mph    
Visibility 10 miles    
Events      
T = Trace of Precipitation, MM = Missing Value Source: NWS Daily Summary

Daily Weather History Graph

Daily Weather History Graph

Search for Another Location

Airport or City:

Trip Planner

Search our weather history database for the weather conditions in past years. The results will help you decide how hot, cold, wet, or windy it might be!

Date:

Astronomy

May. 25, 2012 Rise Set
Actual Time 5:30 AM CDT 7:55 PM CDT
Civil Twilight 5:00 AM CDT 8:25 PM CDT
Nautical Twilight 4:24 AM CDT 9:01 PM CDT
Astronomical Twilight 3:43 AM CDT 9:42 PM CDT
Moon 9:27 AM CDT (5/25) 11:33 PM CDT (5/25)
Length of Visible Light 15h 24m
Length of Day
14h 24m
Waxing Crescent, 20% of the Moon is Illuminated
May 25
Waxing Crescent
May 28
First Quarter
Jun 4
Full
Jun 11
Last Quarter
Jun 19
New

Hourly Weather History & Observations

Time (CDT) Temp. Heat Index Dew Point Humidity Pressure Visibility Wind Dir Wind Speed Gust Speed Precip Events Conditions
12:53 AM 72.0 °F - 61.0 °F 68% 29.93 in 10.0 mi SSE 3.5 mph - N/A   Clear
1:53 AM 70.0 °F - 62.1 °F 76% 29.94 in 10.0 mi Calm Calm - N/A   Clear
2:53 AM 68.0 °F - 62.1 °F 81% 29.96 in 9.0 mi Calm Calm - N/A   Clear
3:53 AM 66.9 °F - 62.1 °F 84% 29.96 in 8.0 mi Calm Calm - N/A   Clear
4:53 AM 71.1 °F - 62.1 °F 73% 29.97 in 9.0 mi South 4.6 mph - N/A   Scattered Clouds
5:53 AM 72.0 °F - 62.1 °F 71% 29.99 in 8.0 mi South 5.8 mph - N/A   Clear
6:53 AM 75.0 °F - 63.0 °F 66% 30.01 in 9.0 mi South 9.2 mph - N/A   Clear
7:53 AM 77.0 °F - 64.9 °F 66% 30.03 in 9.0 mi South 10.4 mph - N/A   Clear
8:53 AM 81.0 °F 83.0 °F 66.0 °F 60% 30.04 in 10.0 mi SSW 11.5 mph - N/A   Clear
9:53 AM 82.9 °F 85.4 °F 66.9 °F 58% 30.04 in 10.0 mi SSW 9.2 mph - N/A   Clear
10:53 AM 84.9 °F 88.2 °F 68.0 °F 57% 30.05 in 10.0 mi SSW 9.2 mph - N/A   Clear
11:53 AM 88.0 °F 90.3 °F 66.0 °F 48% 30.04 in 10.0 mi SW 13.8 mph 19.6 mph N/A   Clear
12:53 PM 89.1 °F 90.3 °F 64.0 °F 43% 30.04 in 10.0 mi WSW 5.8 mph - N/A   Partly Cloudy
1:53 PM 91.0 °F 92.6 °F 64.0 °F 41% 30.04 in 10.0 mi SSW 10.4 mph 18.4 mph N/A   Partly Cloudy
2:53 PM 89.1 °F 90.0 °F 63.0 °F 42% 30.04 in 10.0 mi SSW 5.8 mph - N/A   Partly Cloudy
3:53 PM 91.0 °F 92.6 °F 64.0 °F 41% 30.02 in 10.0 mi WSW 12.7 mph - N/A   Clear
4:53 PM 90.0 °F 90.3 °F 62.1 °F 39% 30.01 in 10.0 mi SSW 8.1 mph - N/A   Clear
5:53 PM 90.0 °F 90.3 °F 62.1 °F 39% 30.01 in 10.0 mi SSW 9.2 mph - N/A   Clear
6:53 PM 88.0 °F 88.7 °F 63.0 °F 43% 30.01 in 10.0 mi SSW 9.2 mph - N/A   Clear
7:53 PM 84.9 °F 86.1 °F 64.0 °F 49% 30.02 in 10.0 mi South 5.8 mph - N/A   Clear
8:53 PM 80.1 °F 82.1 °F 66.0 °F 62% 30.04 in 10.0 mi Calm Calm - N/A   Clear
9:53 PM 81.0 °F 82.5 °F 64.0 °F 56% 30.07 in 10.0 mi West 3.5 mph - N/A   Clear
10:53 PM 73.9 °F - 66.0 °F 76% 30.07 in 10.0 mi Calm Calm - N/A   Clear
11:53 PM 72.0 °F - 66.0 °F 81% 30.07 in 10.0 mi Calm Calm - N/A   Clear